| time (UTC) | temp C | wind direction | speed KPH | gust KPH | rain 1hr cm | rain 24hr cm | rain mn cm | humidity % | barometer mb |
| 20260508024617 | 16 | 245 | 1.6 | 6.4 | 0.00 | 0.00 | 0.00 | 83 | 1015.3 |
| 20260508023056 | 16 | 284 | 3.2 | 14.5 | 0.00 | 0.00 | 0.00 | 82 | 1015.2 |
| 20260508021604 | 16 | 192 | 3.2 | 8.0 | 0.00 | 0.00 | 0.00 | 82 | 1015.2 |
| 20260508020054 | 16 | 226 | 4.8 | 11.3 | 0.00 | 0.00 | 0.00 | 81 | 1015.1 |
| 20260508014554 | 17 | 243 | 3.2 | 9.7 | 0.00 | 0.00 | 0.00 | 80 | 1015.0 |
| 20260508013054 | 17 | 237 | 3.2 | 11.3 | 0.00 | 0.00 | 0.00 | 80 | 1015.0 |
| 20260508011554 | 17 | 294 | 4.8 | 12.9 | 0.00 | 0.00 | 0.00 | 80 | 1015.1 |
| 20260508010054 | 17 | 294 | 3.2 | 14.5 | 0.00 | 0.00 | 0.00 | 80 | 1015.1 |
| 20260508004555 | 18 | 288 | 3.2 | 12.9 | 0.00 | 0.00 | 0.00 | 78 | 1015.1 |
| 20260508003054 | 17 | 258 | 3.2 | 16.1 | 0.00 | 0.00 | 0.00 | 79 | 1015.1 |
| 20260508001552 | 17 | 246 | 6.4 | 14.5 | 0.00 | 0.00 | 0.00 | 79 | 1015.2 |
| 20260508000054 | 18 | 243 | 4.8 | 14.5 | 0.00 | 0.00 | 0.00 | 76 | 1015.3 |
| 20260507234553 | 17 | 294 | 3.2 | 17.7 | 0.00 | 0.00 | 0.00 | 78 | 1015.2 |
| 20260507233100 | 18 | 238 | 6.4 | 17.7 | 0.00 | 0.00 | 0.00 | 77 | 1015.1 |
| 20260507231559 | 18 | 260 | 6.4 | 24.1 | 0.00 | 0.00 | 0.00 | 77 | 1015.2 |
| 20260507230110 | 18 | 295 | 6.4 | 16.1 | 0.00 | 0.00 | 0.00 | 76 | 1015.1 |
| 20260507224555 | 18 | 290 | 6.4 | 16.1 | 0.00 | 0.00 | 0.00 | 76 | 1015.2 |
| 20260507223052 | 18 | 234 | 11.3 | 19.3 | 0.00 | 0.00 | 0.00 | 76 | 1015.3 |
| 20260507221554 | 18 | 261 | 6.4 | 22.5 | 0.00 | 0.00 | 0.00 | 76 | 1015.5 |
| 20260507220055 | 19 | 360 | 9.7 | 19.3 | 0.00 | 0.00 | 0.00 | 76 | 1015.6 |
| 20260507214555 | 20 | 254 | 9.7 | 17.7 | 0.00 | 0.00 | 0.00 | 74 | 1015.5 |
| 20260507213053 | 19 | 242 | 8.0 | 20.9 | 0.00 | 0.00 | 0.00 | 75 | 1015.7 |
| 20260507211551 | 20 | 262 | 11.3 | 25.7 | 0.00 | 0.00 | 0.00 | 73 | 1015.9 |
| 20260507210109 | 20 | 227 | 12.9 | 22.5 | 0.00 | 0.00 | 0.00 | 74 | 1015.9 |
| 20260507204554 | 20 | 258 | 9.7 | 24.1 | 0.00 | 0.00 | 0.00 | 73 | 1016.1 |
| 20260507203115 | 20 | 182 | 9.7 | 22.5 | 0.00 | 0.00 | 0.00 | 75 | 1016.1 |
| 20260507201553 | 20 | 271 | 9.7 | 25.7 | 0.00 | 0.00 | 0.00 | 73 | 1016.2 |
| 20260507200057 | 20 | 360 | 11.3 | 19.3 | 0.00 | 0.00 | 0.00 | 74 | 1016.1 |
| 20260507194601 | 20 | 206 | 9.7 | 22.5 | 0.00 | 0.00 | 0.00 | 73 | 1016.2 |
| 20260507193052 | 20 | 259 | 8.0 | 19.3 | 0.00 | 0.00 | 0.00 | 73 | 1016.3 |
| 20260507191550 | 20 | 209 | 8.0 | 20.9 | 0.00 | 0.00 | 0.00 | 72 | 1016.5 |
| 20260507184558 | 19 | 246 | 9.7 | 22.5 | 0.00 | 0.00 | 0.00 | 74 | 1016.8 |
| 20260507183058 | 19 | 360 | 9.7 | 19.3 | 0.00 | 0.00 | 0.00 | 74 | 1017.0 |
| 20260507181552 | 20 | 220 | 9.7 | 19.3 | 0.00 | 0.00 | 0.00 | 75 | 1017.0 |
| 20260507180053 | 20 | 252 | 9.7 | 17.7 | 0.00 | 0.00 | 0.00 | 74 | 1017.0 |
| 20260507174551 | 20 | 211 | 4.8 | 14.5 | 0.00 | 0.00 | 0.00 | 73 | 1017.2 |
| 20260507173128 | 20 | 360 | 6.4 | 14.5 | 0.00 | 0.00 | 0.00 | 74 | 1017.2 |
| 20260507171548 | 18 | 241 | 6.4 | 17.7 | 0.00 | 0.00 | 0.00 | 75 | 1017.1 |
| 20260507170050 | 19 | 263 | 4.8 | 17.7 | 0.00 | 0.00 | 0.00 | 75 | 1017.2 |
| 20260507164551 | 18 | 247 | 4.8 | 12.9 | 0.00 | 0.00 | 0.00 | 76 | 1017.2 |
| 20260507163050 | 18 | 241 | 6.4 | 12.9 | 0.00 | 0.00 | 0.00 | 78 | 1017.4 |
| 20260507161554 | 18 | 249 | 4.8 | 11.3 | 0.00 | 0.00 | 0.00 | 77 | 1017.2 |
| 20260507160104 | 18 | 221 | 3.2 | 9.7 | 0.00 | 0.00 | 0.00 | 77 | 1017.4 |
| 20260507154558 | 18 | 153 | 4.8 | 11.3 | 0.00 | 0.00 | 0.00 | 78 | 1017.4 |
| 20260507153059 | 16 | 221 | 3.2 | 11.3 | 0.00 | 0.00 | 0.00 | 80 | 1017.4 |
| 20260507151555 | 17 | 149 | 3.2 | 12.9 | 0.00 | 0.00 | 0.00 | 80 | 1017.4 |
| 20260507150057 | 16 | 152 | 1.6 | 9.7 | 0.00 | 0.00 | 0.00 | 81 | 1017.3 |
| 20260507144608 | 16 | 157 | 1.6 | 8.0 | 0.00 | 0.00 | 0.00 | 83 | 1017.2 |
| 20260507143101 | 15 | 148 | 4.8 | 9.7 | 0.00 | 0.00 | 0.00 | 86 | 1017.0 |
| 20260507141600 | 15 | 155 | 1.6 | 8.0 | 0.00 | 0.00 | 0.00 | 87 | 1016.9 |
| 20260507140049 | 14 | 153 | 3.2 | 9.7 | 0.00 | 0.00 | 0.00 | 87 | 1016.8 |
| 20260507134556 | 15 | 116 | 3.2 | 6.4 | 0.00 | 0.00 | 0.00 | 86 | 1016.7 |
| 20260507133137 | 14 | 116 | 3.2 | 9.7 | 0.00 | 0.00 | 0.00 | 89 | 1016.6 |
| 20260507131558 | 13 | 125 | 3.2 | 9.7 | 0.00 | 0.00 | 0.00 | 89 | 1016.5 |
| 20260507124556 | 13 | 121 | 3.2 | 9.7 | 0.00 | 0.00 | 0.00 | 88 | 1016.3 |
| 20260507123053 | 13 | 123 | 1.6 | 4.8 | 0.00 | 0.00 | 0.00 | 88 | 1016.3 |
| 20260507121553 | 13 | 123 | 1.6 | 6.4 | 0.00 | 0.00 | 0.00 | 88 | 1016.2 |
| 20260507120052 | 13 | 123 | 3.2 | 6.4 | 0.00 | 0.00 | 0.00 | 88 | 1016.3 |
| 20260507114609 | 13 | 139 | 3.2 | 6.4 | 0.00 | 0.00 | 0.00 | 88 | 1016.3 |
| 20260507113058 | 13 | 0 | 1.6 | 4.8 | 0.00 | 0.00 | 0.00 | 88 | 1016.4 |
| 20260507111555 | 13 | 140 | 1.6 | 3.2 | 0.00 | 0.00 | 0.00 | 88 | 1016.4 |
| 20260507110054 | 13 | 0 | 0.0 | 3.2 | 0.00 | 0.00 | 0.00 | 88 | 1016.5 |
| 20260507104552 | 13 | 0 | 0.0 | 3.2 | 0.00 | 0.00 | 0.00 | 88 | 1016.6 |
| 20260507103055 | 13 | 140 | 1.6 | 4.8 | 0.00 | 0.00 | 0.00 | 88 | 1016.7 |
| 20260507101550 | 13 | 140 | 3.2 | 6.4 | 0.00 | 0.00 | 0.00 | 88 | 1016.7 |
| 20260507100054 | 13 | 139 | 3.2 | 8.0 | 0.00 | 0.00 | 0.00 | 87 | 1016.8 |
| 20260507094600 | 13 | 141 | 3.2 | 8.0 | 0.00 | 0.00 | 0.00 | 87 | 1016.9 |
| 20260507093056 | 14 | 155 | 1.6 | 8.0 | 0.00 | 0.00 | 0.00 | 87 | 1017.0 |
| 20260507091557 | 14 | 155 | 3.2 | 9.7 | 0.00 | 0.00 | 0.00 | 87 | 1017.1 |
| 20260507090051 | 14 | 159 | 3.2 | 8.0 | 0.00 | 0.00 | 0.00 | 87 | 1017.2 |
| 20260507084557 | 14 | 159 | 1.6 | 6.4 | 0.00 | 0.00 | 0.00 | 87 | 1017.4 |
| 20260507083053 | 14 | 160 | 1.6 | 8.0 | 0.00 | 0.00 | 0.00 | 87 | 1017.5 |
| 20260507081555 | 14 | 161 | 3.2 | 8.0 | 0.00 | 0.00 | 0.00 | 87 | 1017.6 |
| 20260507080056 | 14 | 161 | 4.8 | 9.7 | 0.00 | 0.00 | 0.00 | 86 | 1017.7 |
| 20260507074557 | 14 | 163 | 3.2 | 8.0 | 0.00 | 0.00 | 0.00 | 86 | 1017.6 |
| 20260507073102 | 14 | 163 | 3.2 | 8.0 | 0.00 | 0.00 | 0.00 | 86 | 1017.8 |
| 20260507071553 | 14 | 167 | 4.8 | 9.7 | 0.00 | 0.00 | 0.00 | 85 | 1017.8 |
| 20260507070057 | 15 | 212 | 1.6 | 6.4 | 0.00 | 0.00 | 0.00 | 85 | 1017.9 |
| 20260507064557 | 15 | 217 | 3.2 | 8.0 | 0.00 | 0.00 | 0.00 | 85 | 1017.8 |
| 20260507063100 | 15 | 290 | 1.6 | 3.2 | 0.00 | 0.00 | 0.00 | 85 | 1017.9 |
| 20260507061553 | 15 | 0 | 0.0 | 3.2 | 0.00 | 0.00 | 0.00 | 85 | 1017.9 |
| 20260507060056 | 15 | 0 | 0.0 | 3.2 | 0.00 | 0.00 | 0.00 | 85 | 1018.0 |
| 20260507054557 | 15 | 0 | 0.0 | 4.8 | 0.00 | 0.00 | 0.00 | 85 | 1018.1 |
| 20260507053116 | 15 | 290 | 0.0 | 3.2 | 0.00 | 0.00 | 0.00 | 84 | 1018.1 |
| 20260507051558 | 15 | 0 | 0.0 | 3.2 | 0.00 | 0.00 | 0.00 | 83 | 1018.0 |
| 20260507050058 | 15 | 0 | 0.0 | 3.2 | 0.00 | 0.00 | 0.00 | 82 | 1017.8 |
| 20260507044630 | 15 | 291 | 1.6 | 4.8 | 0.00 | 0.00 | 0.00 | 83 | 1017.9 |
| 20260507043053 | 15 | 294 | 0.0 | 3.2 | 0.00 | 0.00 | 0.00 | 82 | 1017.9 |
| 20260507041552 | 16 | 294 | 1.6 | 6.4 | 0.00 | 0.00 | 0.00 | 81 | 1017.9 |
| 20260507040050 | 16 | 291 | 3.2 | 11.3 | 0.00 | 0.00 | 0.00 | 81 | 1017.8 |
| 20260507034601 | 16 | 289 | 3.2 | 9.7 | 0.00 | 0.00 | 0.00 | 82 | 1017.7 |
| 20260507033105 | 16 | 288 | 1.6 | 8.0 | 0.00 | 0.00 | 0.00 | 83 | 1017.6 |
| 20260507031600 | 16 | 301 | 4.8 | 8.0 | 0.00 | 0.00 | 0.00 | 82 | 1017.4 |